Time,TemperatureF,DewpointF,PressureIn,WindDirection,WindDirectionDegrees,WindSpeedMPH,WindSpeedGustMPH,Humidity,HourlyPrecipIn,Conditions,Clouds,dailyrainin,SoftwareType,DateUTC
2013-03-28 00:00:00,42.0,31.0,30.18,NW,315,7.0,9.0,65,0.00,CLR,,0.00,WeatherDisplay:10.37,2013-03-28 04:00:00,
2013-03-28 00:01:00,42.0,31.1,30.18,NNW,329,6.8,8.1,65,0.00,CLR,,0.00,WeatherDisplay:10.37,2013-03-28 04:01:00,
2013-03-28 00:06:00,41.9,31.0,30.18,NW,309,4.5,6.9,65,0.00,CLR,,0.00,WeatherDisplay:10.37,2013-03-28 04:06:00,
2013-03-28 00:11:00,41.7,30.8,30.18,NW,318,5.2,6.0,65,0.00,CLR,,0.00,WeatherDisplay:10.37,2013-03-28 04:11:00,
2013-03-28 00:16:00,41.7,30.0,30.18,NW,319,6.8,8.1,63,0.00,CLR,,0.00,WeatherDisplay:10.37,2013-03-28 04:16:00,
2013-03-28 00:21:00,41.9,29.8,30.18,NNW,329,7.0,10.4,62,0.00,CLR,,0.00,WeatherDisplay:10.37,2013-03-28 04:21:00,
2013-03-28 00:27:00,42.0,29.5,30.18,NW,322,7.0,8.1,61,0.00,CLR,,0.00,WeatherDisplay:10.37,2013-03-28 04:27:00,
2013-03-28 00:32:00,41.9,29.8,30.18,NNW,329,7.8,9.2,62,0.00,CLR,,0.00,WeatherDisplay:10.37,2013-03-28 04:32:00,
2013-03-28 00:37:00,42.1,29.2,30.18,NW,322,7.5,8.1,60,0.00,CLR,,0.00,WeatherDisplay:10.37,2013-03-28 04:37:00,
2013-03-28 00:42:00,42.2,28.9,30.18,NNW,332,6.7,8.1,59,0.00,CLR,,0.00,WeatherDisplay:10.37,2013-03-28 04:42:00,
2013-03-28 00:47:00,42.4,29.5,30.18,NW,325,7.6,8.1,60,0.00,CLR,,0.00,WeatherDisplay:10.37,2013-03-28 04:47:00,
2013-03-28 00:52:00,42.4,28.7,30.18,North,355,8.1,9.2,58,0.00,CLR,,0.00,WeatherDisplay:10.37,2013-03-28 04:52:00,
2013-03-28 00:57:00,42.4,29.1,30.18,NW,326,7.6,10.4,59,0.00,CLR,,0.00,WeatherDisplay:10.37,2013-03-28 04:57:00,
2013-03-28 01:03:00,42.4,28.7,30.18,NW,319,8.4,11.5,58,0.00,CLR,,0.00,WeatherDisplay:10.37,2013-03-28 05:03:00,
2013-03-28 01:08:00,42.3,28.6,30.18,NNW,332,7.4,9.2,58,0.00,CLR,,0.00,WeatherDisplay:10.37,2013-03-28 05:08:00,
2013-03-28 01:13:00,42.2,28.9,30.19,NNW,332,6.9,9.2,59,0.00,CLR,,0.00,WeatherDisplay:10.37,2013-03-28 05:13:00,
2013-03-28 01:18:00,42.2,28.9,30.19,NNW,330,7.0,8.1,59,0.00,CLR,,0.00,WeatherDisplay:10.37,2013-03-28 05:18:00,
2013-03-28 01:23:00,42.0,28.3,30.19,NW,325,6.2,9.2,58,0.00,CLR,,0.00,WeatherDisplay:10.37,2013-03-28 05:23:00,
2013-03-28 01:28:00,42.0,28.3,30.18,NNW,329,6.0,9.2,58,0.00,CLR,,0.00,WeatherDisplay:10.37,2013-03-28 05:28:00,
2013-03-28 01:33:00,41.9,28.2,30.18,NW,316,6.8,8.1,58,0.00,CLR,,0.00,WeatherDisplay:10.37,2013-03-28 05:33:00,
2013-03-28 01:38:00,41.8,28.9,30.18,NW,322,7.2,9.0,60,0.00,CLR,,0.00,WeatherDisplay:10.37,2013-03-28 05:38:00,
2013-03-28 01:43:00,41.7,28.0,30.18,NNW,331,7.1,9.2,58,0.00,CLR,,0.00,WeatherDisplay:10.37,2013-03-28 05:43:00,
2013-03-28 01:49:00,41.5,28.6,30.18,NW,311,6.5,8.1,60,0.00,CLR,,0.00,WeatherDisplay:10.37,2013-03-28 05:49:00,
2013-03-28 01:54:00,41.5,28.6,30.18,NW,314,6.0,6.9,60,0.00,CLR,,0.00,WeatherDisplay:10.37,2013-03-28 05:54:00,
2013-03-28 01:59:00,41.3,28.4,30.19,NW,324,5.9,7.0,60,0.00,CLR,,0.00,WeatherDisplay:10.37,2013-03-28 05:59:00,
2013-03-28 02:04:00,41.3,28.4,30.19,NNW,327,4.5,5.0,60,0.00,CLR,,0.00,WeatherDisplay:10.37,2013-03-28 06:04:00,
2013-03-28 02:09:00,41.2,28.4,30.19,NNW,327,6.0,9.2,60,0.00,CLR,,0.00,WeatherDisplay:10.37,2013-03-28 06:09:00,
2013-03-28 02:15:00,41.1,28.3,30.19,NNW,327,5.0,8.0,60,0.00,CLR,,0.00,WeatherDisplay:10.37,2013-03-28 06:15:00,
2013-03-28 02:20:00,41.0,28.1,30.18,NNW,327,6.0,8.0,60,0.00,CLR,,0.00,WeatherDisplay:10.37,2013-03-28 06:20:00,
2013-03-28 02:25:00,40.8,28.4,30.18,NW,323,6.0,9.0,61,0.00,CLR,,0.00,WeatherDisplay:10.37,2013-03-28 06:25:00,
2013-03-28 02:30:00,40.7,28.3,30.18,NW,323,6.0,7.0,61,0.00,CLR,,0.00,WeatherDisplay:10.37,2013-03-28 06:30:00,
2013-03-28 02:35:00,40.6,28.6,30.18,NW,324,6.0,8.0,62,0.00,CLR,,0.00,WeatherDisplay:10.37,2013-03-28 06:35:00,
2013-03-28 02:40:00,40.5,28.5,30.18,NW,323,6.0,8.0,62,0.00,CLR,,0.00,WeatherDisplay:10.37,2013-03-28 06:40:00,
2013-03-28 02:45:00,40.5,28.5,30.18,NW,324,5.0,8.0,62,0.00,CLR,,0.00,WeatherDisplay:10.37,2013-03-28 06:45:00,
2013-03-28 02:50:00,40.4,28.4,30.18,NW,321,6.0,7.0,62,0.00,CLR,,0.00,WeatherDisplay:10.37,2013-03-28 06:50:00,
2013-03-28 02:55:00,40.3,28.3,30.18,NNW,331,5.3,6.0,62,0.00,CLR,,0.00,WeatherDisplay:10.37,2013-03-28 06:55:00,
2013-03-28 03:00:00,40.4,28.8,30.18,NNW,327,5.1,5.8,63,0.00,CLR,,0.00,WeatherDisplay:10.37,2013-03-28 07:00:00,
2013-03-28 03:05:00,40.3,28.7,30.18,NW,324,6.2,8.1,63,0.00,CLR,,0.00,WeatherDisplay:10.37,2013-03-28 07:05:00,
2013-03-28 03:10:00,40.2,28.2,30.18,NW,320,4.4,5.8,62,0.00,CLR,,0.00,WeatherDisplay:10.37,2013-03-28 07:10:00,
2013-03-28 03:16:00,40.2,28.6,30.17,NNW,329,3.9,6.9,63,0.00,CLR,,0.00,WeatherDisplay:10.37,2013-03-28 07:16:00,
2013-03-28 03:21:00,40.0,28.4,30.17,NW,325,4.5,5.0,63,0.00,CLR,,0.00,WeatherDisplay:10.37,2013-03-28 07:21:00,
2013-03-28 03:27:00,39.9,28.3,30.17,NW,322,5.3,6.9,63,0.00,CLR,,0.00,WeatherDisplay:10.37,2013-03-28 07:27:00,
2013-03-28 03:32:00,39.9,28.7,30.17,NW,323,5.4,6.9,64,0.00,CLR,,0.00,WeatherDisplay:10.37,2013-03-28 07:32:00,
2013-03-28 03:37:00,39.8,28.6,30.17,NW,321,4.6,6.9,64,0.00,CLR,,0.00,WeatherDisplay:10.37,2013-03-28 07:37:00,
2013-03-28 03:42:00,39.6,28.8,30.17,NW,325,3.9,5.8,65,0.00,CLR,,0.00,WeatherDisplay:10.37,2013-03-28 07:42:00,
2013-03-28 03:47:00,39.5,28.7,30.17,NW,323,3.6,5.0,65,0.00,CLR,,0.00,WeatherDisplay:10.37,2013-03-28 07:47:00,
2013-03-28 03:53:00,39.4,28.6,30.17,NW,316,4.2,4.6,65,0.00,CLR,,0.00,WeatherDisplay:10.37,2013-03-28 07:53:00,
2013-03-28 03:58:00,39.3,28.9,30.17,NNW,327,5.3,5.8,66,0.00,CLR,,0.00,WeatherDisplay:10.37,2013-03-28 07:58:00,
2013-03-28 04:03:00,39.1,28.7,30.17,NW,320,5.2,6.9,66,0.00,CLR,,0.00,WeatherDisplay:10.37,2013-03-28 08:03:00,
2013-03-28 04:08:00,38.9,28.9,30.17,NW,318,3.9,4.0,67,0.00,CLR,,0.00,WeatherDisplay:10.37,2013-03-28 08:08:00,
2013-03-28 04:13:00,38.8,28.8,30.17,NW,319,3.6,3.6,67,0.00,CLR,,0.00,WeatherDisplay:10.37,2013-03-28 08:13:00,
2013-03-28 04:18:00,38.7,29.0,30.17,NW,318,4.2,4.6,68,0.00,CLR,,0.00,WeatherDisplay:10.37,2013-03-28 08:18:00,
2013-03-28 04:23:00,38.6,28.9,30.17,NW,319,3.3,4.0,68,0.00,CLR,,0.00,WeatherDisplay:10.37,2013-03-28 08:23:00,
2013-03-28 04:28:00,38.4,28.8,30.18,NW,317,4.1,4.6,68,0.00,CLR,,0.00,WeatherDisplay:10.37,2013-03-28 08:28:00,
2013-03-28 04:33:00,38.4,29.1,30.17,NW,321,3.8,5.8,69,0.00,CLR,,0.00,WeatherDisplay:10.37,2013-03-28 08:33:00,
2013-03-28 04:39:00,38.2,28.9,30.17,NW,321,3.8,5.8,69,0.00,CLR,,0.00,WeatherDisplay:10.37,2013-03-28 08:39:00,
2013-03-28 04:44:00,38.2,28.9,30.17,NW,321,3.5,4.0,69,0.00,CLR,,0.00,WeatherDisplay:10.37,2013-03-28 08:44:00,
2013-03-28 04:49:00,38.1,28.8,30.17,NW,319,4.0,4.6,69,0.00,CLR,,0.00,WeatherDisplay:10.37,2013-03-28 08:49:00,
2013-03-28 04:54:00,38.1,28.8,30.17,NW,319,3.6,4.6,69,0.00,CLR,,0.00,WeatherDisplay:10.37,2013-03-28 08:54:00,
2013-03-28 04:59:00,38.0,29.1,30.17,NW,319,3.7,4.6,70,0.00,CLR,,0.00,WeatherDisplay:10.37,2013-03-28 08:59:00,
2013-03-28 05:05:00,37.9,28.6,30.17,NW,317,4.1,5.0,69,0.00,CLR,,0.00,WeatherDisplay:10.37,2013-03-28 09:05:00,
2013-03-28 05:10:00,37.9,28.9,30.17,NW,318,3.0,5.0,70,0.00,CLR,,0.00,WeatherDisplay:10.37,2013-03-28 09:10:00,
2013-03-28 05:15:00,37.8,28.9,30.17,NW,318,3.0,5.0,70,0.00,CLR,,0.00,WeatherDisplay:10.37,2013-03-28 09:15:00,
2013-03-28 05:20:00,37.7,28.8,30.17,NW,320,5.0,6.0,70,0.00,CLR,,0.00,WeatherDisplay:10.37,2013-03-28 09:20:00,
2013-03-28 05:25:00,37.7,29.1,30.17,NW,319,4.4,4.6,71,0.00,CLR,,0.00,WeatherDisplay:10.37,2013-03-28 09:25:00,
2013-03-28 05:30:00,37.6,28.7,30.17,NW,320,2.0,6.0,70,0.00,CLR,,0.00,WeatherDisplay:10.37,2013-03-28 09:30:00,
2013-03-28 05:35:00,37.4,28.9,30.17,NW,318,2.9,3.5,71,0.00,CLR,,0.00,WeatherDisplay:10.37,2013-03-28 09:35:00,
2013-03-28 05:40:00,37.4,28.9,30.17,NW,318,3.0,3.5,71,0.00,CLR,,0.00,WeatherDisplay:10.37,2013-03-28 09:40:00,
2013-03-28 05:45:00,37.2,28.7,30.17,NW,318,2.3,3.5,71,0.00,CLR,,0.00,WeatherDisplay:10.37,2013-03-28 09:45:00,
2013-03-28 05:51:00,37.0,28.8,30.17,NW,318,2.3,3.5,72,0.00,CLR,,0.00,WeatherDisplay:10.37,2013-03-28 09:51:00,
2013-03-28 05:56:00,36.7,28.9,30.18,NW,318,2.2,4.0,73,0.00,CLR,,0.00,WeatherDisplay:10.37,2013-03-28 09:56:00,
2013-03-28 06:01:00,36.5,28.7,30.18,NW,318,3.0,3.5,73,0.00,CLR,,0.00,WeatherDisplay:10.37,2013-03-28 10:01:00,
2013-03-28 06:06:00,36.3,28.8,30.18,NW,322,3.4,4.0,74,0.00,CLR,,0.00,WeatherDisplay:10.37,2013-03-28 10:06:00,
2013-03-28 06:11:00,36.2,28.7,30.18,NNW,329,3.4,4.6,74,0.00,CLR,,0.00,WeatherDisplay:10.37,2013-03-28 10:11:00,
2013-03-28 06:16:00,36.1,28.9,30.18,NNW,327,3.1,3.5,75,0.00,CLR,,0.00,WeatherDisplay:10.37,2013-03-28 10:16:00,
2013-03-28 06:22:00,36.0,28.8,30.18,NW,326,2.8,3.5,75,0.00,CLR,,0.00,WeatherDisplay:10.37,2013-03-28 10:22:00,
2013-03-28 06:27:00,35.8,29.0,30.18,NW,326,3.4,4.0,76,0.00,CLR,,0.00,WeatherDisplay:10.37,2013-03-28 10:27:00,
2013-03-28 06:32:00,35.7,28.9,30.18,NW,323,3.4,5.8,76,0.00,CLR,,0.00,WeatherDisplay:10.37,2013-03-28 10:32:00,
2013-03-28 06:37:00,35.5,29.0,30.18,NW,323,4.3,5.8,77,0.00,CLR,,0.00,WeatherDisplay:10.37,2013-03-28 10:37:00,
2013-03-28 06:43:00,35.4,28.9,30.18,NW,317,4.3,5.0,77,0.00,CLR,,0.00,WeatherDisplay:10.37,2013-03-28 10:43:00,
2013-03-28 06:48:00,35.4,29.2,30.18,NW,316,4.0,4.6,78,0.00,CLR,,0.00,WeatherDisplay:10.37,2013-03-28 10:48:00,
2013-03-28 06:53:00,35.4,29.2,30.18,NW,322,4.6,5.8,78,0.00,CLR,,0.00,WeatherDisplay:10.37,2013-03-28 10:53:00,
2013-03-28 06:58:00,35.5,29.0,30.19,NW,321,5.1,6.0,77,0.00,CLR,,0.00,WeatherDisplay:10.37,2013-03-28 10:58:00,
2013-03-28 07:03:00,35.5,29.3,30.19,NW,313,4.3,6.9,78,0.00,CLR,,0.00,WeatherDisplay:10.37,2013-03-28 11:03:00,
2013-03-28 07:09:00,35.5,29.0,30.19,NW,319,4.6,5.8,77,0.00,CLR,,0.00,WeatherDisplay:10.37,2013-03-28 11:09:00,
2013-03-28 07:14:00,35.5,29.3,30.19,NW,325,4.5,5.0,78,0.00,CLR,,0.00,WeatherDisplay:10.37,2013-03-28 11:14:00,
2013-03-28 07:19:00,35.5,29.3,30.19,NNW,327,4.0,4.0,78,0.00,CLR,,0.00,WeatherDisplay:10.37,2013-03-28 11:19:00,
2013-03-28 07:24:00,35.5,29.3,30.19,NW,325,3.6,4.0,78,0.00,CLR,,0.00,WeatherDisplay:10.37,2013-03-28 11:24:00,
2013-03-28 07:30:00,35.6,29.4,30.19,NW,313,4.3,5.0,78,0.00,CLR,,0.00,WeatherDisplay:10.37,2013-03-28 11:30:00,
2013-03-28 07:35:00,35.7,29.5,30.19,NW,318,5.0,6.0,78,0.00,CLR,,0.00,WeatherDisplay:10.37,2013-03-28 11:35:00,
2013-03-28 07:40:00,36.0,29.8,30.20,NW,320,5.0,6.0,78,0.00,CLR,,0.00,WeatherDisplay:10.37,2013-03-28 11:40:00,
2013-03-28 07:45:00,36.3,30.1,30.20,NW,321,5.0,7.0,78,0.00,CLR,,0.00,WeatherDisplay:10.37,2013-03-28 11:45:00,
2013-03-28 07:50:00,36.7,30.2,30.20,NW,323,5.0,8.0,77,0.00,CLR,,0.00,WeatherDisplay:10.37,2013-03-28 11:50:00,
2013-03-28 07:55:00,37.1,30.2,30.20,NW,325,6.0,8.0,76,0.00,CLR,,0.00,WeatherDisplay:10.37,2013-03-28 11:55:00,
2013-03-28 08:00:00,37.5,30.3,30.20,NW,326,6.0,8.0,75,0.00,CLR,,0.00,WeatherDisplay:10.37,2013-03-28 12:00:00,
2013-03-28 08:05:00,38.0,30.8,30.20,NW,324,6.3,7.0,75,0.00,CLR,,0.00,WeatherDisplay:10.37,2013-03-28 12:05:00,
2013-03-28 08:10:00,38.5,31.0,30.20,NW,326,8.0,12.0,74,0.00,CLR,,0.00,WeatherDisplay:10.37,2013-03-28 12:10:00,
2013-03-28 08:15:00,39.1,30.8,30.20,NNW,331,7.0,12.0,72,0.00,CLR,,0.00,WeatherDisplay:10.37,2013-03-28 12:15:00,
2013-03-28 08:20:00,39.7,31.0,30.20,NNW,330,9.0,14.0,71,0.00,CLR,,0.00,WeatherDisplay:10.37,2013-03-28 12:20:00,
2013-03-28 08:25:00,40.1,31.1,30.20,NNW,327,10.0,13.0,70,0.00,CLR,,0.00,WeatherDisplay:10.37,2013-03-28 12:25:00,
2013-03-28 08:30:00,40.5,31.4,30.20,NNW,331,8.0,12.0,70,0.00,CLR,,0.00,WeatherDisplay:10.37,2013-03-28 12:30:00,
2013-03-28 08:35:00,40.8,31.0,30.20,NNW,333,10.0,13.0,68,0.00,CLR,,0.00,WeatherDisplay:10.37,2013-03-28 12:35:00,
2013-03-28 08:40:00,41.0,30.9,30.20,NNW,334,13.0,16.0,67,0.00,CLR,,0.00,WeatherDisplay:10.37,2013-03-28 12:40:00,
2013-03-28 08:45:00,41.4,30.9,30.20,NNW,338,9.6,11.5,66,0.00,CLR,,0.00,WeatherDisplay:10.37,2013-03-28 12:45:00,
2013-03-28 08:50:00,41.7,31.5,30.20,NNW,330,10.0,14.0,67,0.00,CLR,,0.00,WeatherDisplay:10.37,2013-03-28 12:50:00,
2013-03-28 08:55:00,42.0,31.5,30.20,NNW,334,7.0,15.0,66,0.00,CLR,,0.00,WeatherDisplay:10.37,2013-03-28 12:55:00,
2013-03-28 09:00:00,42.3,31.0,30.20,NNW,342,10.0,15.0,64,0.00,CLR,,0.00,WeatherDisplay:10.37,2013-03-28 13:00:00,
2013-03-28 09:05:00,42.5,31.2,30.20,NNW,344,9.0,13.0,64,0.00,CLR,,0.00,WeatherDisplay:10.37,2013-03-28 13:05:00,
2013-03-28 09:10:00,42.9,31.6,30.20,NNW,340,8.0,18.0,64,0.00,CLR,,0.00,WeatherDisplay:10.37,2013-03-28 13:10:00,
2013-03-28 09:15:00,43.1,31.0,30.20,NNW,340,12.0,20.0,62,0.00,CLR,,0.00,WeatherDisplay:10.37,2013-03-28 13:15:00,
2013-03-28 09:20:00,43.3,31.1,30.20,NNW,341,10.0,15.0,62,0.00,CLR,,0.00,WeatherDisplay:10.37,2013-03-28 13:20:00,
2013-03-28 09:25:00,43.6,31.8,30.20,NNW,341,8.0,15.0,63,0.00,CLR,,0.00,WeatherDisplay:10.37,2013-03-28 13:25:00,
2013-03-28 09:30:00,44.2,32.0,30.20,NNW,338,13.0,20.0,62,0.00,CLR,,0.00,WeatherDisplay:10.37,2013-03-28 13:30:00,
2013-03-28 09:35:00,44.1,31.5,30.20,NNW,336,8.0,18.0,61,0.00,CLR,,0.00,WeatherDisplay:10.37,2013-03-28 13:35:00,
2013-03-28 09:40:00,44.5,31.9,30.19,NNW,338,9.0,15.0,61,0.00,CLR,,0.00,WeatherDisplay:10.37,2013-03-28 13:40:00,
2013-03-28 09:45:00,45.0,32.3,30.20,NW,315,7.3,10.4,61,0.00,CLR,,0.00,WeatherDisplay:10.37,2013-03-28 13:45:00,
2013-03-28 09:50:00,45.5,32.4,30.20,NNW,333,12.0,16.0,60,0.00,CLR,,0.00,WeatherDisplay:10.37,2013-03-28 13:50:00,
2013-03-28 09:55:00,45.6,31.2,30.20,NNW,338,12.0,18.0,57,0.00,CLR,,0.00,WeatherDisplay:10.37,2013-03-28 13:55:00,
2013-03-28 10:00:00,45.7,31.8,30.20,NNW,342,8.0,16.0,58,0.00,CLR,,0.00,WeatherDisplay:10.37,2013-03-28 14:00:00,
2013-03-28 10:05:00,46.1,31.3,30.20,NNW,344,14.0,18.0,56,0.00,CLR,,0.00,WeatherDisplay:10.37,2013-03-28 14:05:00,
2013-03-28 10:10:00,46.1,31.3,30.20,NNW,340,10.0,16.0,56,0.00,CLR,,0.00,WeatherDisplay:10.37,2013-03-28 14:10:00,
2013-03-28 10:15:00,46.5,31.2,30.20,NNW,334,10.0,15.0,55,0.00,CLR,,0.00,WeatherDisplay:10.37,2013-03-28 14:15:00,
2013-03-28 10:20:00,46.8,31.5,30.20,NNW,341,13.0,20.0,55,0.00,CLR,,0.00,WeatherDisplay:10.37,2013-03-28 14:20:00,
2013-03-28 10:25:00,46.9,31.6,30.20,North,349,9.1,11.5,55,0.00,CLR,,0.00,WeatherDisplay:10.37,2013-03-28 14:25:00,
2013-03-28 10:30:00,47.5,31.7,30.20,NNW,345,8.0,11.0,54,0.00,CLR,,0.00,WeatherDisplay:10.37,2013-03-28 14:30:00,
2013-03-28 10:35:00,47.9,31.6,30.20,NNW,347,10.8,16.1,53,0.00,CLR,,0.00,WeatherDisplay:10.37,2013-03-28 14:35:00,
2013-03-28 10:40:00,48.0,31.7,30.20,NW,306,10.0,11.5,53,0.00,CLR,,0.00,WeatherDisplay:10.37,2013-03-28 14:40:00,
2013-03-28 10:45:00,48.1,30.8,30.20,NNW,346,10.9,17.3,51,0.00,CLR,,0.00,WeatherDisplay:10.37,2013-03-28 14:45:00,
2013-03-28 10:50:00,48.0,30.7,30.20,NNW,338,10.2,13.8,51,0.00,CLR,,0.00,WeatherDisplay:10.37,2013-03-28 14:50:00,
2013-03-28 10:56:00,48.2,30.4,30.20,NNW,334,8.1,11.5,50,0.00,CLR,,0.00,WeatherDisplay:10.37,2013-03-28 14:56:00,
2013-03-28 11:01:00,48.4,31.6,30.20,NNW,347,7.9,10.4,52,0.00,CLR,,0.00,WeatherDisplay:10.37,2013-03-28 15:01:00,
2013-03-28 11:06:00,49.0,31.2,30.20,North,355,9.6,12.7,50,0.00,CLR,,0.00,WeatherDisplay:10.37,2013-03-28 15:06:00,
2013-03-28 11:11:00,49.4,30.5,30.20,NW,321,10.9,11.0,48,0.00,CLR,,0.00,WeatherDisplay:10.37,2013-03-28 15:11:00,
2013-03-28 11:16:00,49.4,30.0,30.21,NNE,31,6.3,13.8,47,0.00,CLR,,0.00,WeatherDisplay:10.37,2013-03-28 15:16:00,
2013-03-28 11:22:00,49.8,31.4,30.20,North,350,8.9,12.7,49,0.00,CLR,,0.00,WeatherDisplay:10.37,2013-03-28 15:22:00,
2013-03-28 11:27:00,50.0,30.5,30.20,North,355,6.2,9.2,47,0.00,CLR,,0.00,WeatherDisplay:10.37,2013-03-28 15:27:00,
2013-03-28 11:32:00,50.6,31.6,30.20,North,355,5.9,11.5,48,0.00,CLR,,0.00,WeatherDisplay:10.37,2013-03-28 15:32:00,
2013-03-28 11:37:00,50.5,31.0,30.20,North,351,11.2,13.8,47,0.00,CLR,,0.00,WeatherDisplay:10.37,2013-03-28 15:37:00,
2013-03-28 11:42:00,50.5,32.0,30.20,NNW,332,3.9,9.2,49,0.00,CLR,,0.00,WeatherDisplay:10.37,2013-03-28 15:42:00,
2013-03-28 11:47:00,50.7,30.1,30.20,North,355,6.2,9.2,45,0.00,CLR,,0.00,WeatherDisplay:10.37,2013-03-28 15:47:00,
2013-03-28 11:52:00,50.3,30.3,30.19,NW,326,7.3,13.8,46,0.00,CLR,,0.00,WeatherDisplay:10.37,2013-03-28 15:52:00,
2013-03-28 11:57:00,50.1,30.6,30.20,North,5,5.0,9.2,47,0.00,CLR,,0.00,WeatherDisplay:10.37,2013-03-28 15:57:00,
2013-03-28 12:02:00,51.0,31.5,30.19,WNW,290,8.0,11.0,47,0.00,CLR,,0.00,WeatherDisplay:10.37,2013-03-28 16:02:00,
2013-03-28 12:08:00,51.2,31.1,30.19,West,265,5.9,11.5,46,0.00,CLR,,0.00,WeatherDisplay:10.37,2013-03-28 16:08:00,
2013-03-28 12:13:00,51.1,30.5,30.19,NW,317,5.8,9.2,45,0.00,CLR,,0.00,WeatherDisplay:10.37,2013-03-28 16:13:00,
2013-03-28 12:18:00,50.5,29.4,30.19,NNW,340,10.3,13.8,44,0.00,CLR,,0.00,WeatherDisplay:10.37,2013-03-28 16:18:00,
2013-03-28 12:23:00,50.7,31.7,30.19,NNW,331,10.9,13.8,48,0.00,CLR,,0.00,WeatherDisplay:10.37,2013-03-28 16:23:00,
2013-03-28 12:28:00,50.6,28.9,30.19,NNW,339,10.4,16.1,43,0.00,CLR,,0.00,WeatherDisplay:10.37,2013-03-28 16:28:00,
2013-03-28 12:33:00,51.3,30.1,30.19,NW,320,8.0,11.5,44,0.00,CLR,,0.00,WeatherDisplay:10.37,2013-03-28 16:33:00,
2013-03-28 12:38:00,51.5,30.8,30.19,NNW,334,9.4,13.0,45,0.00,CLR,,0.00,WeatherDisplay:10.37,2013-03-28 16:38:00,
2013-03-28 12:43:00,51.2,28.9,30.19,NW,320,11.6,17.3,42,0.00,CLR,,0.00,WeatherDisplay:10.37,2013-03-28 16:43:00,
2013-03-28 12:48:00,51.6,29.2,30.19,NNW,333,14.4,14.4,42,0.00,CLR,,0.00,WeatherDisplay:10.37,2013-03-28 16:48:00,
2013-03-28 12:53:00,51.5,28.6,30.18,NW,319,6.3,16.1,41,0.00,CLR,,0.00,WeatherDisplay:10.37,2013-03-28 16:53:00,
2013-03-28 12:59:00,51.6,28.0,30.18,WNW,296,8.9,11.5,40,0.00,CLR,,0.00,WeatherDisplay:10.37,2013-03-28 16:59:00,
2013-03-28 13:04:00,52.4,30.0,30.18,NW,317,7.9,10.4,42,0.00,CLR,,0.00,WeatherDisplay:10.37,2013-03-28 17:04:00,
2013-03-28 13:09:00,52.4,28.8,30.18,WNW,303,8.4,11.0,40,0.00,CLR,,0.00,WeatherDisplay:10.37,2013-03-28 17:09:00,
2013-03-28 13:14:00,52.3,30.4,30.18,NNW,338,12.8,19.6,43,0.00,CLR,,0.00,WeatherDisplay:10.37,2013-03-28 17:14:00,
2013-03-28 13:20:00,52.3,28.1,30.17,WNW,297,8.4,11.5,39,0.00,CLR,,0.00,WeatherDisplay:10.37,2013-03-28 17:20:00,
2013-03-28 13:25:00,53.1,31.2,30.17,NW,311,12.0,14.0,43,0.00,CLR,,0.00,WeatherDisplay:10.37,2013-03-28 17:25:00,
2013-03-28 13:30:00,52.9,29.2,30.17,NW,325,10.0,18.0,40,0.00,CLR,,0.00,WeatherDisplay:10.37,2013-03-28 17:30:00,
2013-03-28 13:35:00,52.7,27.8,30.17,NNW,328,10.0,18.0,38,0.00,CLR,,0.00,WeatherDisplay:10.37,2013-03-28 17:35:00,
2013-03-28 13:40:00,52.9,29.2,30.18,NNW,341,9.3,13.8,40,0.00,CLR,,0.00,WeatherDisplay:10.37,2013-03-28 17:40:00,
2013-03-28 13:45:00,52.8,28.5,30.17,NNW,334,6.0,18.0,39,0.00,CLR,,0.00,WeatherDisplay:10.37,2013-03-28 17:45:00,
2013-03-28 13:50:00,53.5,31.0,30.17,NW,318,10.0,15.0,42,0.00,CLR,,0.00,WeatherDisplay:10.37,2013-03-28 17:50:00,
2013-03-28 13:55:00,53.5,28.5,30.17,NW,308,8.0,14.0,38,0.00,CLR,,0.00,WeatherDisplay:10.37,2013-03-28 17:55:00,
2013-03-28 14:00:00,53.2,29.5,30.17,NW,313,9.0,15.0,40,0.00,CLR,,0.00,WeatherDisplay:10.37,2013-03-28 18:00:00,
2013-03-28 14:05:00,53.4,29.1,30.17,NW,314,13.0,17.0,39,0.00,CLR,,0.00,WeatherDisplay:10.37,2013-03-28 18:05:00,
2013-03-28 14:10:00,53.6,31.0,30.17,NW,320,7.0,15.0,42,0.00,CLR,,0.00,WeatherDisplay:10.37,2013-03-28 18:10:00,
2013-03-28 14:15:00,53.4,29.1,30.17,NNW,332,7.0,20.0,39,0.00,CLR,,0.00,WeatherDisplay:10.37,2013-03-28 18:15:00,
2013-03-28 14:20:00,53.4,28.4,30.16,NNW,332,14.0,22.0,38,0.00,CLR,,0.00,WeatherDisplay:10.37,2013-03-28 18:20:00,
2013-03-28 14:25:00,53.1,28.8,30.16,NW,313,9.5,15.0,39,0.00,CLR,,0.00,WeatherDisplay:10.37,2013-03-28 18:25:00,
2013-03-28 14:30:00,53.1,30.0,30.16,NW,313,9.0,16.0,41,0.00,CLR,,0.00,WeatherDisplay:10.37,2013-03-28 18:30:00,
2013-03-28 14:35:00,53.7,30.0,30.16,NW,317,13.0,20.0,40,0.00,CLR,,0.00,WeatherDisplay:10.37,2013-03-28 18:35:00,
2013-03-28 14:40:00,53.9,29.5,30.16,NNW,335,12.1,17.3,39,0.00,CLR,,0.00,WeatherDisplay:10.37,2013-03-28 18:40:00,
2013-03-28 14:45:00,54.1,29.0,30.15,NNW,333,13.0,18.0,38,0.00,CLR,,0.00,WeatherDisplay:10.37,2013-03-28 18:45:00,
2013-03-28 14:50:00,54.0,28.3,30.15,NNW,331,12.2,17.3,37,0.00,CLR,,0.00,WeatherDisplay:10.37,2013-03-28 18:50:00,
2013-03-28 14:55:00,54.0,28.9,30.15,NW,325,14.0,20.0,38,0.00,CLR,,0.00,WeatherDisplay:10.37,2013-03-28 18:55:00,
2013-03-28 15:00:00,53.9,30.2,30.15,NW,317,14.0,17.0,40,0.00,CLR,,0.00,WeatherDisplay:10.37,2013-03-28 19:00:00,
2013-03-28 15:05:00,54.4,29.9,30.15,NW,316,10.0,16.0,39,0.00,CLR,,0.00,WeatherDisplay:10.37,2013-03-28 19:05:00,
2013-03-28 15:10:00,54.7,28.9,30.15,NW,312,7.0,20.0,37,0.00,CLR,,0.00,WeatherDisplay:10.37,2013-03-28 19:10:00,
2013-03-28 15:15:00,55.2,29.4,30.15,NW,326,15.0,23.0,37,0.00,CLR,,0.00,WeatherDisplay:10.37,2013-03-28 19:15:00,
2013-03-28 15:20:00,55.3,29.4,30.15,NNW,348,8.0,12.0,37,0.00,CLR,,0.00,WeatherDisplay:10.37,2013-03-28 19:20:00,
2013-03-28 15:25:00,55.4,28.9,30.14,NNW,335,14.0,18.0,36,0.00,CLR,,0.00,WeatherDisplay:10.37,2013-03-28 19:25:00,
2013-03-28 15:30:00,54.9,29.7,30.14,NNW,331,12.0,18.0,38,0.00,CLR,,0.00,WeatherDisplay:10.37,2013-03-28 19:30:00,
2013-03-28 15:35:00,54.5,30.0,30.14,NNW,331,14.0,17.0,39,0.00,CLR,,0.00,WeatherDisplay:10.37,2013-03-28 19:35:00,
2013-03-28 15:40:00,54.9,30.4,30.14,NW,320,12.8,19.6,39,0.00,CLR,,0.00,WeatherDisplay:10.37,2013-03-28 19:40:00,
2013-03-28 15:45:00,54.1,28.4,30.14,NW,314,13.7,17.3,37,0.00,CLR,,0.00,WeatherDisplay:10.37,2013-03-28 19:45:00,
2013-03-28 15:50:00,53.6,29.2,30.14,NW,320,8.3,15.0,39,0.00,CLR,,0.00,WeatherDisplay:10.37,2013-03-28 19:50:00,
2013-03-28 15:55:00,54.2,29.8,30.14,NW,306,11.1,16.1,39,0.00,CLR,,0.00,WeatherDisplay:10.37,2013-03-28 19:55:00,
2013-03-28 16:00:00,53.7,28.0,30.14,NNW,339,12.3,20.7,37,0.00,CLR,,0.00,WeatherDisplay:10.37,2013-03-28 20:00:00,
2013-03-28 16:05:00,54.3,29.8,30.14,North,355,9.6,17.3,39,0.00,CLR,,0.00,WeatherDisplay:10.37,2013-03-28 20:05:00,
2013-03-28 16:11:00,54.6,29.5,30.14,NNW,330,6.1,9.2,38,0.00,CLR,,0.00,WeatherDisplay:10.37,2013-03-28 20:11:00,
2013-03-28 16:15:00,54.1,28.4,30.14,NNW,328,6.2,12.7,37,0.00,CLR,,0.00,WeatherDisplay:10.37,2013-03-28 20:15:00,
2013-03-28 16:20:00,54.4,31.2,30.14,NW,323,10.1,16.1,41,0.00,CLR,,0.00,WeatherDisplay:10.37,2013-03-28 20:20:00,
2013-03-28 16:26:00,54.5,28.1,30.14,NW,325,13.8,17.3,36,0.00,CLR,,0.00,WeatherDisplay:10.37,2013-03-28 20:26:00,
2013-03-28 16:31:00,53.8,28.8,30.14,NNW,329,8.3,12.7,38,0.00,CLR,,0.00,WeatherDisplay:10.37,2013-03-28 20:31:00,
2013-03-28 16:36:00,53.7,28.0,30.14,North,5,5.9,11.5,37,0.00,CLR,,0.00,WeatherDisplay:10.37,2013-03-28 20:36:00,
2013-03-28 16:41:00,53.9,30.1,30.14,NW,315,8.4,11.5,40,0.00,CLR,,0.00,WeatherDisplay:10.37,2013-03-28 20:41:00,
2013-03-28 16:46:00,54.2,29.1,30.13,NW,306,11.3,14.0,38,0.00,CLR,,0.00,WeatherDisplay:10.37,2013-03-28 20:46:00,
2013-03-28 16:51:00,54.4,29.3,30.14,NW,326,11.3,17.3,38,0.00,CLR,,0.00,WeatherDisplay:10.37,2013-03-28 20:51:00,
2013-03-28 16:56:00,54.5,29.4,30.14,WNW,302,8.0,10.4,38,0.00,CLR,,0.00,WeatherDisplay:10.37,2013-03-28 20:56:00,
2013-03-28 17:01:00,54.5,29.4,30.14,NW,313,13.2,14.0,38,0.00,CLR,,0.00,WeatherDisplay:10.37,2013-03-28 21:01:00,
2013-03-28 17:06:00,53.9,28.2,30.14,NNW,336,12.5,17.3,37,0.00,CLR,,0.00,WeatherDisplay:10.37,2013-03-28 21:06:00,
2013-03-28 17:12:00,54.0,28.9,30.14,NNW,348,9.8,11.5,38,0.00,CLR,,0.00,WeatherDisplay:10.37,2013-03-28 21:12:00,
2013-03-28 17:17:00,54.1,29.0,30.14,NW,313,9.2,16.1,38,0.00,CLR,,0.00,WeatherDisplay:10.37,2013-03-28 21:17:00,
2013-03-28 17:22:00,53.8,29.4,30.14,NW,323,7.4,11.5,39,0.00,CLR,,0.00,WeatherDisplay:10.37,2013-03-28 21:22:00,
2013-03-28 17:27:00,54.0,30.2,30.14,NW,325,9.9,11.5,40,0.00,CLR,,0.00,WeatherDisplay:10.37,2013-03-28 21:27:00,
2013-03-28 17:32:00,53.7,28.7,30.14,NNW,327,11.3,12.7,38,0.00,CLR,,0.00,WeatherDisplay:10.37,2013-03-28 21:32:00,
2013-03-28 17:37:00,54.1,29.7,30.15,NNW,336,7.3,12.7,39,0.00,CLR,,0.00,WeatherDisplay:10.37,2013-03-28 21:37:00,
2013-03-28 17:43:00,54.5,29.4,30.15,NNW,333,10.3,12.7,38,0.00,CLR,,0.00,WeatherDisplay:10.37,2013-03-28 21:43:00,
2013-03-28 17:48:00,54.1,28.4,30.15,NNW,333,8.5,11.5,37,0.00,CLR,,0.00,WeatherDisplay:10.37,2013-03-28 21:48:00,
2013-03-28 17:53:00,53.7,28.7,30.15,NNW,340,9.0,11.5,38,0.00,CLR,,0.00,WeatherDisplay:10.37,2013-03-28 21:53:00,
2013-03-28 17:58:00,53.9,28.8,30.15,NNW,328,9.5,12.7,38,0.00,CLR,,0.00,WeatherDisplay:10.37,2013-03-28 21:58:00,
2013-03-28 18:03:00,54.1,29.0,30.15,NNW,348,8.1,10.0,38,0.00,CLR,,0.00,WeatherDisplay:10.37,2013-03-28 22:03:00,
2013-03-28 18:08:00,53.7,29.3,30.15,NNW,330,10.2,11.5,39,0.00,CLR,,0.00,WeatherDisplay:10.37,2013-03-28 22:08:00,
2013-03-28 18:13:00,53.7,29.9,30.16,NNW,333,8.1,11.5,40,0.00,CLR,,0.00,WeatherDisplay:10.37,2013-03-28 22:13:00,
2013-03-28 18:18:00,53.7,29.9,30.16,NNW,327,6.0,9.2,40,0.00,CLR,,0.00,WeatherDisplay:10.37,2013-03-28 22:18:00,
2013-03-28 18:23:00,53.7,29.3,30.16,NNW,343,8.3,8.3,39,0.00,CLR,,0.00,WeatherDisplay:10.37,2013-03-28 22:23:00,
2013-03-28 18:28:00,53.5,29.1,30.16,NNW,328,6.9,8.1,39,0.00,CLR,,0.00,WeatherDisplay:10.37,2013-03-28 22:28:00,
2013-03-28 18:33:00,53.4,30.3,30.16,NW,317,4.8,7.0,41,0.00,CLR,,0.00,WeatherDisplay:10.37,2013-03-28 22:33:00,
2013-03-28 18:39:00,53.3,30.2,30.16,NNW,348,4.4,5.8,41,0.00,CLR,,0.00,WeatherDisplay:10.37,2013-03-28 22:39:00,
2013-03-28 18:44:00,53.3,30.8,30.16,NNW,331,3.1,3.5,42,0.00,CLR,,0.00,WeatherDisplay:10.37,2013-03-28 22:44:00,
2013-03-28 18:49:00,53.4,31.4,30.16,NNW,327,3.1,4.6,43,0.00,CLR,,0.00,WeatherDisplay:10.37,2013-03-28 22:49:00,
2013-03-28 18:54:00,53.1,30.0,30.16,NNW,334,3.0,4.0,41,0.00,CLR,,0.00,WeatherDisplay:10.37,2013-03-28 22:54:00,
2013-03-28 18:59:00,52.8,30.3,30.16,NNW,342,3.6,3.6,42,0.00,CLR,,0.00,WeatherDisplay:10.37,2013-03-28 22:59:00,
2013-03-28 19:04:00,52.5,31.2,30.16,NNW,342,3.0,3.5,44,0.00,CLR,,0.00,WeatherDisplay:10.37,2013-03-28 23:04:00,
2013-03-28 19:10:00,52.2,31.5,30.16,NNW,342,1.6,3.5,45,0.00,CLR,,0.00,WeatherDisplay:10.37,2013-03-28 23:10:00,
2013-03-28 19:15:00,52.0,30.8,30.16,NNW,342,1.0,3.0,44,0.00,CLR,,0.00,WeatherDisplay:10.37,2013-03-28 23:15:00,
2013-03-28 19:20:00,51.7,31.0,30.17,NNW,342,1.0,3.0,45,0.00,CLR,,0.00,WeatherDisplay:10.37,2013-03-28 23:20:00,
2013-03-28 19:25:00,51.4,32.4,30.17,NNW,342,1.0,2.0,48,0.00,CLR,,0.00,WeatherDisplay:10.37,2013-03-28 23:25:00,
2013-03-28 19:30:00,51.0,33.5,30.17,NNW,342,1.0,3.0,51,0.00,CLR,,0.00,WeatherDisplay:10.37,2013-03-28 23:30:00,
2013-03-28 19:35:00,50.5,35.4,30.17,NNW,342,0.0,0.0,56,0.00,CLR,,0.00,WeatherDisplay:10.37,2013-03-28 23:35:00,
2013-03-28 19:40:00,49.9,35.3,30.17,NNW,342,0.0,0.0,57,0.00,CLR,,0.00,WeatherDisplay:10.37,2013-03-28 23:40:00,
2013-03-28 19:45:00,49.3,35.6,30.17,NNW,342,0.0,0.0,59,0.00,CLR,,0.00,WeatherDisplay:10.37,2013-03-28 23:45:00,
2013-03-28 19:50:00,48.7,35.4,30.17,NNW,342,2.0,3.0,60,0.00,CLR,,0.00,WeatherDisplay:10.37,2013-03-28 23:50:00,
2013-03-28 19:55:00,48.2,34.1,30.18,NNW,342,1.0,2.0,58,0.00,CLR,,0.00,WeatherDisplay:10.37,2013-03-28 23:55:00,
2013-03-28 20:00:00,47.8,35.8,30.18,NNW,342,0.0,0.0,63,0.00,CLR,,0.00,WeatherDisplay:10.37,2013-03-29 00:00:00,
2013-03-28 20:05:00,47.2,36.4,30.18,NNW,342,0.0,0.0,66,0.00,CLR,,0.00,WeatherDisplay:10.37,2013-03-29 00:05:00,
2013-03-28 20:10:00,46.6,35.4,30.19,NNW,342,0.0,0.0,65,0.00,CLR,,0.00,WeatherDisplay:10.37,2013-03-29 00:10:00,
2013-03-28 20:15:00,45.9,35.6,30.18,NNW,342,0.0,0.0,67,0.00,CLR,,0.00,WeatherDisplay:10.37,2013-03-29 00:15:00,
2013-03-28 20:20:00,45.5,35.9,30.19,NNW,342,0.0,0.0,69,0.00,CLR,,0.00,WeatherDisplay:10.37,2013-03-29 00:20:00,
2013-03-28 20:25:00,45.1,35.9,30.18,NNW,342,0.0,0.0,70,0.00,CLR,,0.00,WeatherDisplay:10.37,2013-03-29 00:25:00,
2013-03-28 20:30:00,44.6,35.8,30.18,NNW,342,0.0,0.0,71,0.00,CLR,,0.00,WeatherDisplay:10.37,2013-03-29 00:30:00,
2013-03-28 20:35:00,44.1,35.7,30.19,NNW,342,0.0,0.0,72,0.00,CLR,,0.00,WeatherDisplay:10.37,2013-03-29 00:35:00,
2013-03-28 20:40:00,43.7,35.6,30.19,NNW,342,0.0,0.0,73,0.00,CLR,,0.00,WeatherDisplay:10.37,2013-03-29 00:40:00,
2013-03-28 20:45:00,43.4,35.7,30.19,NNW,342,0.0,0.0,74,0.00,CLR,,0.00,WeatherDisplay:10.37,2013-03-29 00:45:00,
2013-03-28 20:50:00,43.2,35.8,30.19,NNW,342,0.0,0.0,75,0.00,CLR,,0.00,WeatherDisplay:10.37,2013-03-29 00:50:00,
2013-03-28 20:55:00,43.0,36.6,30.20,NNW,342,0.0,0.0,78,0.00,CLR,,0.00,WeatherDisplay:10.37,2013-03-29 00:55:00,
2013-03-28 21:00:00,42.8,36.7,30.20,NNW,342,0.0,0.0,79,0.00,CLR,,0.00,WeatherDisplay:10.37,2013-03-29 01:00:00,
2013-03-28 21:05:00,42.7,36.6,30.20,NNW,342,0.0,0.0,79,0.00,CLR,,0.00,WeatherDisplay:10.37,2013-03-29 01:05:00,
2013-03-28 21:10:00,42.5,36.8,30.20,NNW,342,0.0,0.0,80,0.00,CLR,,0.00,WeatherDisplay:10.37,2013-03-29 01:10:00,
2013-03-28 21:15:00,42.4,36.7,30.20,NNW,342,0.0,0.0,80,0.00,CLR,,0.00,WeatherDisplay:10.37,2013-03-29 01:15:00,
2013-03-28 21:20:00,42.2,36.8,30.20,NNW,342,0.0,0.0,81,0.00,CLR,,0.00,WeatherDisplay:10.37,2013-03-29 01:20:00,
2013-03-28 21:26:00,42.1,36.7,30.20,NNW,342,0.0,0.0,81,0.00,CLR,,0.00,WeatherDisplay:10.37,2013-03-29 01:26:00,
2013-03-28 21:31:00,41.9,36.5,30.21,NNW,342,0.0,0.0,81,0.00,CLR,,0.00,WeatherDisplay:10.37,2013-03-29 01:31:00,
2013-03-28 21:36:00,41.9,36.5,30.21,NNW,342,0.2,1.1,81,0.00,CLR,,0.00,WeatherDisplay:10.37,2013-03-29 01:36:00,
2013-03-28 21:41:00,41.8,36.4,30.21,NNW,342,0.0,0.0,81,0.00,CLR,,0.00,WeatherDisplay:10.37,2013-03-29 01:41:00,
2013-03-28 21:46:00,41.8,36.7,30.22,NNW,342,0.0,0.0,82,0.00,CLR,,0.00,WeatherDisplay:10.37,2013-03-29 01:46:00,
2013-03-28 21:51:00,41.8,36.4,30.22,NNW,342,0.2,2.3,81,0.00,CLR,,0.00,WeatherDisplay:10.37,2013-03-29 01:51:00,
2013-03-28 21:57:00,41.8,36.4,30.22,North,355,0.5,1.1,81,0.00,CLR,,0.00,WeatherDisplay:10.37,2013-03-29 01:57:00,
2013-03-28 22:02:00,41.8,36.1,30.22,North,355,0.2,2.3,80,0.00,CLR,,0.00,WeatherDisplay:10.37,2013-03-29 02:02:00,
2013-03-28 22:07:00,41.8,35.8,30.23,North,355,1.9,2.3,79,0.00,CLR,,0.00,WeatherDisplay:10.37,2013-03-29 02:07:00,
2013-03-28 22:12:00,41.8,34.8,30.23,North,355,1.2,3.5,76,0.00,CLR,,0.00,WeatherDisplay:10.37,2013-03-29 02:12:00,
2013-03-28 22:18:00,41.8,35.1,30.23,North,355,0.0,0.0,77,0.00,CLR,,0.00,WeatherDisplay:10.37,2013-03-29 02:18:00,
2013-03-28 22:23:00,41.7,35.0,30.23,North,355,0.0,0.0,77,0.00,CLR,,0.00,WeatherDisplay:10.37,2013-03-29 02:23:00,
2013-03-28 22:28:00,41.5,34.8,30.23,North,355,0.0,0.0,77,0.00,CLR,,0.00,WeatherDisplay:10.37,2013-03-29 02:28:00,
2013-03-28 22:33:00,41.3,34.3,30.23,North,355,0.0,0.0,76,0.00,CLR,,0.00,WeatherDisplay:10.37,2013-03-29 02:33:00,
2013-03-28 22:38:00,41.3,34.6,30.24,North,355,0.0,0.0,77,0.00,CLR,,0.00,WeatherDisplay:10.37,2013-03-29 02:38:00,
2013-03-28 22:44:00,41.3,35.3,30.24,North,355,0.0,0.0,79,0.00,CLR,,0.00,WeatherDisplay:10.37,2013-03-29 02:44:00,
2013-03-28 22:49:00,41.4,35.4,30.24,North,355,0.0,0.0,79,0.00,CLR,,0.00,WeatherDisplay:10.37,2013-03-29 02:49:00,
2013-03-28 22:54:00,41.5,36.1,30.24,North,355,0.0,0.0,81,0.00,CLR,,0.00,WeatherDisplay:10.37,2013-03-29 02:54:00,
2013-03-28 22:59:00,41.5,36.1,30.24,North,355,0.0,0.0,81,0.00,CLR,,0.00,WeatherDisplay:10.37,2013-03-29 02:59:00,
2013-03-28 23:05:00,41.3,35.9,30.24,North,355,0.0,0.0,81,0.00,CLR,,0.00,WeatherDisplay:10.37,2013-03-29 03:05:00,
2013-03-28 23:10:00,41.1,35.4,30.24,North,355,0.0,0.0,80,0.00,CLR,,0.00,WeatherDisplay:10.37,2013-03-29 03:10:00,
2013-03-28 23:15:00,40.9,35.5,30.24,North,355,0.0,0.0,81,0.00,CLR,,0.00,WeatherDisplay:10.37,2013-03-29 03:15:00,
2013-03-28 23:20:00,40.7,35.3,30.24,North,355,0.0,0.0,81,0.00,CLR,,0.00,WeatherDisplay:10.37,2013-03-29 03:20:00,
2013-03-28 23:25:00,40.4,35.6,30.24,North,355,0.0,0.0,83,0.00,CLR,,0.00,WeatherDisplay:10.37,2013-03-29 03:25:00,
2013-03-28 23:30:00,40.2,35.8,30.24,North,355,0.0,0.0,84,0.00,CLR,,0.00,WeatherDisplay:10.37,2013-03-29 03:30:00,
2013-03-28 23:35:00,40.1,36.2,30.24,North,355,0.0,0.0,86,0.00,CLR,,0.00,WeatherDisplay:10.37,2013-03-29 03:35:00,
2013-03-28 23:40:00,40.0,36.2,30.24,North,355,0.0,0.0,86,0.00,CLR,,0.00,WeatherDisplay:10.37,2013-03-29 03:40:00,
2013-03-28 23:45:00,39.8,36.2,30.24,North,355,0.0,0.0,87,0.00,CLR,,0.00,WeatherDisplay:10.37,2013-03-29 03:45:00,
2013-03-28 23:50:00,39.6,36.0,30.24,North,355,0.0,0.0,87,0.00,CLR,,0.00,WeatherDisplay:10.37,2013-03-29 03:50:00,
2013-03-28 23:55:00,39.3,35.5,30.25,North,355,0.0,0.0,86,0.00,CLR,,0.00,WeatherDisplay:10.37,2013-03-29 03:55:00,